Location: Westminster College Observatory
(41.1194°N, 80.3291°W)
Time: 17:00:31
(UTC-05:00)

N. Korean satellite - Visible Passes

Search period start: 23 January 2018 00:00
Search period end: 02 February 2018 00:00
Orbit: 458 x 515 km, 97.2° (Epoch: 23 January)

Date Brightness Start Highest point End Pass type
(mag) Time Alt. Az. Time Alt. Az. Time Alt. Az.
23 Jan 6.4 07:11:27 10° N 07:14:54 79° WNW 07:18:21 10° SSW visible
23 Jan 10.0 19:22:45 10° WSW 19:24:29 13° W 19:26:12 10° WNW visible
24 Jan 7.7 06:47:52 10° NNE 06:51:13 46° E 06:54:34 10° S visible
24 Jan 9.0 18:57:41 10° SSW 19:00:39 25° W 19:03:38 10° NW visible
25 Jan 9.3 06:24:40 10° NE 06:27:27 23° E 06:30:15 10° SSE visible
25 Jan 7.5 18:33:27 10° S 18:36:55 51° W 18:40:22 10° NNW visible
26 Jan 10.1 06:02:21 10° ENE 06:03:37 12° E 06:04:54 10° ESE visible
26 Jan 6.4 18:09:43 10° SSE 18:13:15 73° ENE 18:16:45 10° N visible
27 Jan 10.0 19:21:31 10° WSW 19:23:15 13° W 19:24:59 10° WNW visible
28 Jan 7.8 06:46:38 10° NNE 06:49:59 45° E 06:53:21 10° S visible
28 Jan 9.0 18:56:28 10° SSW 18:59:26 25° W 19:02:24 10° NW visible
29 Jan 9.3 06:23:26 10° NE 06:26:13 22° E 06:29:01 10° SSE visible
29 Jan 7.4 18:32:14 10° S 18:35:40 52° W 18:39:06 10° NNW visible
30 Jan 10.2 06:01:09 10° ENE 06:02:22 11° E 06:03:35 10° ESE visible
30 Jan 6.4 18:08:30 10° SSE 18:11:59 70° ENE 18:15:27 10° N visible
31 Jan 10.0 19:20:14 10° WSW 19:21:59 13° W 19:23:45 10° WNW visible
01 Feb 7.9 06:45:21 10° NNE 06:48:42 44° E 06:52:06 10° S visible
01 Feb 9.0 18:55:11 10° SSW 18:58:10 26° W 19:01:07 10° NW visible
